Regional Weather Roundup
Issued by NWS

Home | Current Version | Previous Version | Graphics & Text | Print | Product List | Glossary On
Versions: 1 2 3 4 5 6 7 8 9 10 11 12 13 14 15 16 17 18 19 20 21 22 23 24 25 26 27
000
ASUS45 KSLC 270410
RWRUT

UTAH REGIONAL WEATHER ROUNDUP
NATIONAL WEATHER SERVICE SALT LAKE CITY UT
1000 PM MDT SUN MAR 26 2017

UTZ001>011-023>025-270500-

NORTHERN UTAH

CITY           SKY/WX    TMP DP  RH WIND       PRES   REMARKS
BRIGHAM CITY     N/A     50  34  53 N3        29.95S
HILL AFB       CLOUDY    47  30  51 S10       29.95S
LOGAN          CLOUDY    49  33  54 S5        29.95S
OGDEN          CLOUDY    46  32  58 S8        29.94F
SALT LAKE CITY CLOUDY    51  31  46 SE9       29.94F
WENDOVER       CLOUDY    51  36  56 E8        29.91S
HEBER CITY     MOCLDY    41  27  56 CALM      29.98S

$$

UTZ011>015-024>027-270500-

CENTRAL/NORTHEAST UTAH

CITY           SKY/WX    TMP DP  RH WIND       PRES   REMARKS
PROVO AIRPORT  CLOUDY    48  32  53 SE5       29.99S
MOAB/CANYONLAN CLOUDY    50  27  40 CALM      29.93S
DELTA          CLOUDY    46  36  66 E6        29.98S
PRICE          PTCLDY    39  28  64 N8        29.98R WCI  33
RICHFIELD      CLOUDY    48  30  49 CALM      30.02S
ROOSEVELT      CLOUDY    45  32  61 W8        29.99R
VERNAL         CLOUDY    42  31  64 NW3       29.96R

$$

UTZ013>016-019>022-027-270500-

SOUTHERN UTAH

CITY           SKY/WX    TMP DP  RH WIND       PRES   REMARKS
BRYCE CANYON   CLOUDY    38  26  62 W5        30.06R WCI  34
CEDAR CITY     CLOUDY    47  33  58 S7        30.00R
MILFORD        MOCLDY    48  35  60 SW8       29.97R
ST GEORGE      MOCLDY    60  32  34 CALM      29.95S
HANKSVILLE     CLEAR     50  28  43 SE6       29.95F
KANAB          CLOUDY    45  36  70 E3        30.05R
BLANDING       PTCLDY    45  24  43 SW3       30.08R

$$

REGIONAL REPORTS     COLORADO/ARIZONA

CITY           SKY/WX    TMP DP  RH WIND       PRES   REMARKS
CRAIG, CO      CLOUDY    34  25  69 CALM      29.99R
GRAND JUNCTION CLEAR     49  24  37 N8        29.97R
RIFLE, CO      CLOUDY    43  29  57 NE6       29.98R
MONTROSE, CO   CLOUDY    43  35  73 E5        30.00R
CORTEZ, CO     CLOUDY    43  33  68 NE5       30.02R
COLORADO CITY  CLOUDY    52  32  46 CALM      30.04S
PAGE, AZ       PTCLDY    57  34  41 CALM      29.96S
GRAND CANYON   MOCLDY    36  30  79 CALM      30.07S
KINGMAN, AZ    PTCLDY    55  20  25 S10       29.98R
FLAGSTAFF, AZ  CLEAR     40  26  57 SW5       30.09R

$$

REGIONAL REPORTS    NEVADA/IDAHO/WYOMING

CITY           SKY/WX    TMP DP  RH WIND       PRES   REMARKS
LAS VEGAS, NV  PTCLDY    69  27  20 S6        29.87R
ELY, NY        CLOUDY    44  33  65 S9        29.96S
ELKO, NV       CLEAR     40  31  70 E5        29.92S
POCATELLO, ID  LGT RAIN  43  37  79 S8        29.95S
BURLEY, ID     CLOUDY    43  36  76 N6        29.91F
FORT BRIDGER,    N/A     35  26  67 W9        30.03R WCI  28
EVANSTON, WY   CLOUDY    36  23  59 SW6       29.99F WCI  31
ROCK SPRINGS,  CLOUDY    39  24  55 W9        29.99R WCI  33
KEMMERER, WY     N/A     34  27  75 SW7       29.99F WCI  28

$$




USA.gov is the U.S. government's official web portal to all federal, state and local government web resources and services.